Regional Weather Roundup
Issued by NWS

Home | Current Version | Previous Version | Text Only | Print | Product List | Glossary Off
Versions: 1 2 3 4 5 6 7 8 9 10 11 12 13 14 15 16 17 18 19 20 21 22 23 24 25 26 27 28 29 30 31 32 33 34 35 36 37 38 39 40 41 42 43 44 45 46 47 48 49 50

000
ASUS43 KMPX 291701
RWRMN
WEATHER ROUNDUP FOR MINNESOTA
NATIONAL WEATHER SERVICE TWIN CITIES/CHANHASSEN MN
1200 PM CDT FRI APR 29 2016


NOTE: "FAIR" INDICATES FEW OR NO CLOUDS BELOW 12,000 FEET WITH NO
SIGNIFICANT WEATHER AND/OR OBSTRUCTIONS TO VISIBILITY. N/A MEANS
CURRENT SKY AND/OR WEATHER CONDITIONS ARE NOT AVAILABLE.

MNZ060>063-068>070-291800-
   Twin Cities Metro

CITY           SKY/WX    TMP DP  RH WIND       PRES   REMARKS
TWIN CITIES    MOSUNNY   51  32  48 N10G21    30.15S
ST PAUL        SUNNY     50  34  54 NE8       30.16S
BLAINE         SUNNY     52  36  54 N10G20    30.15F
EDEN PRAIRIE   SUNNY     52  33  48 NE13      30.13S
SOUTH ST PAUL  SUNNY     50  36  57 N8        30.15R
LAKE ELMO      FAIR      50  34  53 NE9       30.16R
$$
MNZ001>005-007-008-013>017-022>024-027-028-291800-
   Northwest Minnesota

CITY           SKY/WX    TMP DP  RH WIND       PRES   REMARKS
BEMIDJI        SUNNY     53  31  43 N9        30.18S
HALLOCK        SUNNY     57  27  30 E5        30.23S
ROSEAU         SUNNY     52  37  58 E13G20    30.24S
WARROAD        SUNNY     48  36  61 NE6       30.25S
THIEF RVR FALL SUNNY     54  28  37 E13G18    30.23S
CROOKSTON      SUNNY     55  30  38 E9G17     30.22S
FOSSTON        SUNNY     55  32  41 NE13G18   30.20S
DETROIT LAKES  SUNNY     54  32  43 NE3       30.18S
MOORHEAD       SUNNY     55  36  47 N8        30.18F
PARK RAPIDS    MOSUNNY   55  29  36 SE3       30.15F
MAHNOMEN       FAIR      53  31  42 NE3       30.18R
$$
MNZ006-009>011-018-025>026-291800-
   North Central Minnesota

CITY           SKY/WX    TMP DP  RH WIND       PRES   REMARKS
BAUDETTE       MOSUNNY   54  29  38 E8        30.22S
FLAG ISLAND    SUNNY     46  30  53 N14       30.24R
INTL FALLS     SUNNY     50  31  48 E7        30.22S
WASKISH        SUNNY     54  34  47 NE5       30.20S
BIG FORK       MOSUNNY   55  30  38 E5        30.18F
LONGVILLE      MOSUNNY   54  28  37 CALM      30.16S
GRAND RAPIDS   MOSUNNY   52  28  40 N6        30.19S
CRANE LAKE     MOSUNNY   50  30  46 NE6       30.23S
ORR            PTSUNNY   54  25  32 CALM      30.17S
COOK           PTSUNNY   52  30  43 E7        30.20S
WALKER         FAIR      51  32  49 E6        30.17S
$$
MNZ012-019>021-037-291800-
   Northeast Minnesota

CITY           SKY/WX    TMP DP  RH WIND       PRES   REMARKS
DULUTH         MOSUNNY   50  29  44 VRB3      30.18F
ELY            CLOUDY    46  28  49 N8G17     30.20S
HIBBING        CLOUDY    50  28  42 VRB3      30.18S
EVELETH        PTSUNNY   50  28  43 N5        30.19S
DULUTH HARBOR  SUNNY     43  30  61 CALM      30.23R
TWO HARBORS    SUNNY     50  36  57 SE8       30.18S
SILVER BAY     CLOUDY    48  30  49 E5        30.17S
GRAND MARAIS     N/A     42  31  64 CALM      30.21S
G MARAIS ARPRT CLOUDY    46  27  46 N9        30.18S
$$
MNZ029>031-032-039>041-046>048-054>057-064-291800-
   West Central Minnesota

CITY           SKY/WX    TMP DP  RH WIND       PRES   REMARKS
FERGUS FALLS   SUNNY     54  37  54 N7        30.15F
WHEATON        SUNNY     57  41  54 NE10      30.17F
MORRIS         SUNNY     54  43  66 NE10G16   30.15F
ALEXANDRIA     SUNNY     53  37  54 N10       30.17S
ELBOW LAKE     FAIR      51  38  63 NE6       30.17S
WADENA         SUNNY     54  34  47 N6        30.15F
GLENWOOD       SUNNY     52  37  58 N6        30.17S
APPLETON       SUNNY     54  39  58 NE10G17   30.15F
BENSON         SUNNY     54  37  54 E9G17     30.16F
ORTONVILLE     SUNNY     52  37  58 NE7       30.15F
MADISON        MOSUNNY   52  39  62 E9        30.16S
WILLMAR        FAIR      54  43  66 NE12G17   30.16S
$$
MNZ033>034-036-042>043-049>051-058-059-291800-
   Central Minnesota

CITY           SKY/WX    TMP DP  RH WIND       PRES   REMARKS
ST CLOUD       SUNNY     51  34  52 N13G23    30.15F
SAUK CENTRE    FAIR      51  36  56 NE3       30.16F
PAYNESVILLE    SUNNY     51  38  61 NE9       30.16S
AITKIN         SUNNY     55  23  28 N8        30.16F
PINE RIVER     MOSUNNY   54  32  43 W5        30.18F
BRAINERD       MOSUNNY   54  29  38 VRB5      30.16F
STAPLES        SUNNY     54  30  40 NW5       30.16F
LONG PRAIRIE   FAIR      50  34  53 NE7       30.17S
LITTLE FALLS   SUNNY     52  32  46 NE3       30.16F
LITCHFIELD     SUNNY     52  41  66 N15       30.16R
BUFFALO        SUNNY     50  36  58 NE10      30.17R
MAPLE LAKE     SUNNY     51  38  60 NE10G16   30.17R
HUTCHINSON     SUNNY     53  42  66 NE14      30.16R
$$
MNZ037-044-045-052-053-291800-
   East Central Minnesota

CITY           SKY/WX    TMP DP  RH WIND       PRES   REMARKS
PRINCETON      SUNNY     54  34  47 NE8       30.16F
MORA           SUNNY     52  30  43 NE9       30.17F
CAMBRIDGE      SUNNY     54  36  50 N12       30.13F
RUSH CITY      SUNNY     52  33  47 NE8G16    30.16F
MOOSE LAKE     SUNNY     52  30  43 E6G16     30.16F
HINCKLEY       FAIR      54  32  43 N14       30.15F
CLOQUET        MOSUNNY   52  27  37 E12       30.17F
MCGREGOR       MOSUNNY   52  30  43 E6        30.18F
$$
MNZ071>073-080-081-089-090-097-098-291800-
   Southwest Minnesota

CITY           SKY/WX    TMP DP  RH WIND       PRES   REMARKS
MONTEVIDEO     PTSUNNY   52  43  71 E9        30.17F
GRANITE FALLS  PTSUNNY   51  41  69 NE9G18    30.18S
CANBY          PTSUNNY   52  43  72 NE9       30.17S
MARSHALL       CLOUDY    47  39  74 NE16      30.15F
REDWOOD FALLS  PTSUNNY   50  38  63 N9        30.15S
OLIVIA         PTSUNNY   50  41  71 NE14      30.15S
PIPESTONE      PTSUNNY   45  37  76 E15G21    30.12R
WINDOM         PTSUNNY   48  39  71 NE13      30.14R
WORTHINGTON    CLOUDY    44  38  79 E16       30.14R
JACKSON        CLOUDY    45  37  76 NE10      30.15R
TRACY          PTSUNNY   47  41  78 NE14      30.15S
SLAYTON        CLOUDY    44  40  86 NE17      30.13S
$$
MNZ065>067-074>077-082>085-091>093-291800-
   South Central Minnesota

CITY           SKY/WX    TMP DP  RH WIND       PRES   REMARKS
MANKATO        PTSUNNY   48  37  66 NE10      30.15R
NEW ULM        PTSUNNY   48  37  66 NE9       30.15R
ST JAMES       MOSUNNY   45  36  70 NE14      30.15S
FAIRMONT       PTSUNNY   46  36  66 NE14      30.14R
GLENCOE        MOSUNNY   52  44  75 N7        30.14S
FARIBAULT      MOSUNNY   48  37  66 NE9       30.14S
OWATONNA       MOSUNNY   50  37  62 NE8G16    30.14R
WASECA         MOSUNNY   50  39  66 N9        30.16R
ALBERT LEA     CLOUDY    46  39  76 NE13      30.14R
$$
MNZ078>079-086>088-094>096-291800-
   Southeast Minnesota

CITY           SKY/WX    TMP DP  RH WIND       PRES   REMARKS
ROCHESTER      CLOUDY    45  39  79 NE9       30.15R
RED WING       SUNNY     52  37  58 N9        30.13R
STANTON        SUNNY     50  39  66 NE8       30.13S
DODGE CENTER   PTSUNNY   50  45  81 NE10      30.13S
WINONA         CLOUDY    46  37  71 N6        30.17R
AUSTIN         CLOUDY    45  37  76 E12       30.14S
PRESTON        CLOUDY    43  37  80 N10       30.15R
$$
ABBREVIATIONS USED IN REMARKS
   TC - TEMPERATURES IN CELSIUS
  WCI - WIND CHILL INDEX
   HX - HEAT INDEX
  VSB - VISIBILITY
$$



USA.gov is the U.S. government's official web portal to all federal, state and local government web resources and services.